GEFSNE_500_meanwind_000.txt.gz
Wind_Speed
23 24 28 30 34 36 33 35 38 36 36 34 32 27 26 24 22 22 22 21 21 20 18 18 20 23 25 22 21 20 20 18 14 14 13 13 14 14
22 25 28 29 27 28 28 27 29 29 28 28 28 26 26 24 20 22 23 20 19 19 18 20 21 22 23 22 22 21 19 19 15 13 11 11 13 16
21 26 28 28 25 24 22 23 24 24 27 26 25 25 24 26 22 23 22 20 19 19 19 21 22 22 23 23 22 20 18 16 16 14 12 12 15 15
21 21 22 20 22 21 22 26 23 19 24 25 22 21 21 23 22 22 18 20 20 21 21 20 21 22 23 20 20 18 18 17 16 16 17 15 16 17
20 22 19 17 16 20 20 23 24 20 21 23 23 21 22 22 20 17 19 21 20 22 23 21 22 23 22 20 19 16 16 18 17 18 20 19 20 20
21 21 20 18 18 18 18 17 19 21 22 23 25 24 22 23 20 20 21 20 19 21 24 22 19 20 20 19 17 15 15 20 21 21 21 20 22 22
27 28 26 24 23 23 22 23 24 25 25 25 27 26 24 23 21 21 21 20 19 22 23 23 20 21 20 16 18 18 19 22 26 24 21 20 21 22
27 27 29 29 29 30 29 28 27 26 27 27 28 28 28 26 25 24 23 23 23 26 25 22 23 22 23 22 21 23 23 25 28 28 25 23 23 24
26 27 27 28 29 31 32 32 32 31 30 30 30 29 31 30 28 29 28 26 25 26 27 27 25 25 24 23 26 27 28 30 32 32 31 30 29 28
25 26 27 28 29 30 30 31 31 32 33 34 34 33 34 34 33 32 34 34 31 30 30 28 29 26 27 25 25 28 31 30 35 35 35 36 35 33
28 27 25 25 26 28 31 34 36 37 38 38 40 40 39 38 38 37 38 38 35 35 36 35 34 33 33 30 28 29 29 26 28 33 36 39 38 37
31 30 28 25 23 23 26 31 36 39 41 42 43 43 43 42 42 43 43 43 42 42 43 44 43 40 37 36 34 34 31 28 28 29 32 36 38 39
26 26 24 24 24 24 24 25 27 30 35 40 43 43 44 44 45 45 45 45 45 45 46 46 45 44 42 40 37 36 36 35 32 29 29 34 37 39
24 25 26 26 26 26 26 27 27 28 29 32 37 41 44 46 44 42 41 42 45 46 46 47 47 47 45 44 42 39 39 39 38 34 33 32 35 40
27 26 28 30 28 27 26 27 29 29 29 28 29 32 37 40 44 46 46 43 43 44 43 42 43 45 45 43 42 39 36 35 34 34 34 33 34 41
31 32 33 33 31 30 30 30 30 31 31 28 25 24 28 32 35 40 43 45 41 40 41 41 41 42 42 42 41 38 35 33 32 33 32 30 31 37
30 31 30 29 29 30 31 31 30 32 34 33 31 29 27 26 26 28 32 33 34 39 40 37 37 38 40 41 40 41 42 38 35 37 34 32 31 33
30 29 27 28 27 26 26 28 27 27 29 33 34 33 33 32 31 28 26 28 27 28 30 33 34 35 36 36 37 39 41 39 37 38 40 36 30 33
27 27 27 29 30 30 31 32 32 33 33 34 35 36 37 38 37 36 35 33 34 33 31 30 31 33 35 38 38 37 37 37 37 41 47 47 40 35
25 29 32 34 35 35 35 35 37 39 40 41 42 42 42 42 43 43 43 42 40 37 36 34 32 32 32 32 34 33 35 37 38 39 40 41 37 34
27 30 31 33 33 34 35 36 37 39 40 41 43 44 44 44 45 46 46 45 42 40 37 34 32 30 29 28 26 25 25 31 37 39 40 40 39 36
24 25 26 25 25 27 28 29 31 33 35 36 38 41 43 43 42 43 44 44 44 44 42 39 37 36 34 35 30 28 28 29 31 36 40 41 39 36
25 23 22 24 25 27 27 27 29 31 32 32 32 32 34 37 38 39 40 42 43 46 48 48 48 46 42 40 36 30 28 29 29 31 34 37 38 38

GEFSNE_500_meanwind_006.txt.gz
Wind_Speed
26 25 26 28 30 32 34 36 38 38 37 37 36 35 33 34 35 37 37 37 36 34 33 32 30 27 26 25 24 23 22 22 23 23 24 23 23 22
24 24 23 24 24 26 30 33 35 36 36 35 35 34 32 32 33 35 38 36 35 33 32 30 28 26 25 24 23 22 21 21 23 24 25 25 23 22
23 23 22 22 22 23 24 27 33 35 34 33 33 32 33 32 31 32 33 33 30 27 27 26 25 25 24 24 22 22 21 22 22 24 23 24 23 21
24 24 24 24 25 23 21 19 23 28 29 29 29 28 28 29 29 28 26 25 22 22 23 24 24 24 23 23 22 22 21 22 23 22 22 22 22 20
26 27 28 28 27 25 22 20 19 19 19 21 23 25 25 25 27 26 22 19 19 22 24 24 23 23 23 22 23 24 23 23 23 22 21 21 20 19
27 29 30 30 29 28 26 24 23 21 19 19 19 19 20 20 21 22 21 19 20 22 23 22 22 22 21 22 23 24 24 23 22 22 21 21 19 17
28 29 29 29 29 29 29 28 27 26 24 23 22 21 20 18 19 21 22 21 22 23 23 22 23 21 21 21 22 22 21 20 19 20 21 21 19 18
27 28 28 28 28 29 30 30 29 29 29 28 28 26 25 23 22 22 22 23 24 25 25 24 23 21 20 21 21 20 19 18 18 19 20 20 20 20
25 25 26 27 27 28 29 31 31 31 31 32 32 32 30 28 27 26 26 26 28 28 28 27 26 24 23 23 22 21 21 21 21 21 22 23 23 24
24 24 24 25 25 27 28 29 30 31 32 34 34 35 35 34 32 31 31 31 30 30 30 29 28 26 25 24 24 25 25 25 25 25 25 26 27 27
23 22 23 23 24 25 27 28 30 31 33 35 37 38 39 38 38 37 35 34 34 35 34 32 31 30 30 30 29 28 29 28 27 27 28 29 31 32
19 20 21 22 23 23 24 25 26 28 31 34 36 38 39 41 41 41 40 39 39 39 40 39 38 38 37 36 35 33 32 32 31 30 31 32 33 34
20 21 22 23 23 24 24 25 25 26 27 29 31 33 34 36 39 43 44 43 42 42 43 43 43 43 44 43 42 41 40 39 38 37 35 34 35 35
22 23 24 25 25 26 27 28 29 30 30 31 31 31 31 32 33 36 39 42 43 43 43 43 45 45 45 46 46 46 47 47 46 44 42 39 36 36
23 26 28 29 30 31 31 32 32 33 33 33 34 34 33 33 33 32 33 35 38 41 43 45 45 45 45 46 46 47 49 49 49 48 46 44 41 39
25 27 29 30 31 31 31 31 31 31 31 31 31 33 34 35 34 33 32 31 32 35 38 41 44 45 45 46 46 46 46 47 48 48 48 47 45 44
26 26 26 26 26 26 26 26 27 28 29 29 29 30 31 32 33 34 34 34 33 32 32 34 37 41 45 47 47 46 44 43 44 45 46 46 46 45
25 25 25 24 24 23 23 24 25 26 27 28 29 30 30 31 32 33 34 35 36 36 34 33 32 33 37 42 46 46 46 44 43 44 44 44 43 42
23 23 24 24 24 24 25 25 25 25 25 25 26 27 29 30 32 34 35 36 37 38 38 37 35 33 31 32 34 39 41 42 42 42 43 43 43 42
24 25 25 26 26 27 27 27 27 26 26 26 26 26 26 28 29 32 35 38 39 40 40 41 40 39 37 34 31 29 30 33 36 39 40 41 41 41
25 26 27 28 29 29 30 30 29 28 28 28 27 27 28 29 30 32 32 34 37 39 41 42 43 44 44 41 37 35 33 32 31 32 33 34 35 36
25 26 27 27 28 30 31 30 29 28 27 27 27 26 27 27 28 29 28 29 30 34 37 40 43 45 46 46 44 42 40 39 36 33 32 31 32 32
25 25 26 26 27 28 29 29 27 26 25 25 25 26 26 26 25 25 25 25 25 28 31 34 38 42 45 47 47 45 44 43 42 38 35 35 34 33

GEFSNE_500_meanwind_012.txt.gz
Wind_Speed
30 30 29 28 28 28 28 29 28 28 30 31 34 36 37 38 39 41 42 41 39 38 38 39 40 40 40 40 39 39 37 37 35 32 30 28 27 26
28 27 27 27 27 28 29 29 29 29 29 31 32 34 36 37 38 38 40 41 40 39 38 38 39 40 40 40 38 37 36 37 35 33 31 29 29 28
27 28 29 28 28 29 30 31 30 30 30 31 31 31 32 34 36 37 38 38 38 38 38 38 39 40 40 39 37 36 36 36 35 33 31 31 30 29
28 29 30 30 30 30 31 33 33 33 33 33 32 31 30 30 31 33 35 37 38 39 39 39 40 40 40 39 37 36 36 35 34 33 32 32 32 30
29 30 31 31 32 32 34 35 35 36 36 36 35 33 31 29 27 27 29 31 31 33 34 35 35 35 35 35 35 35 34 33 33 33 33 32 33 32
30 31 32 32 33 34 34 35 36 37 38 38 37 35 34 32 29 26 24 24 24 26 27 28 28 27 28 29 30 31 32 32 31 32 33 34 34 33
29 30 31 32 33 34 34 35 36 37 37 38 37 36 35 34 32 29 26 23 20 21 21 22 22 22 23 25 26 27 28 29 29 30 31 31 30 28
29 30 31 33 33 34 33 33 34 34 34 35 35 35 35 34 34 32 30 27 23 21 19 20 22 21 20 21 22 24 26 28 30 31 29 26 25 25
28 29 30 31 32 32 32 32 32 33 33 33 33 33 33 34 35 35 33 31 29 27 22 21 20 20 20 21 22 23 25 27 28 28 27 26 26 26
26 27 27 28 29 29 30 30 30 31 32 33 33 34 35 35 35 35 35 34 32 31 28 26 24 23 22 23 24 25 25 26 27 26 26 27 27 27
22 23 24 25 26 27 27 28 29 30 32 33 34 35 36 36 36 35 35 35 35 34 33 31 28 25 24 23 25 26 27 27 27 27 27 28 29 28
19 20 22 23 24 24 26 27 28 29 31 32 33 34 35 36 36 36 36 35 36 35 36 35 34 32 30 29 28 27 28 29 29 29 29 29 28 28
17 18 19 20 22 24 26 27 29 30 32 33 34 34 35 36 36 36 36 36 35 35 35 35 36 36 36 35 33 31 30 30 30 30 30 31 30 30
14 16 18 20 22 24 26 28 30 31 32 33 34 35 35 36 36 37 37 37 37 35 34 33 34 36 37 38 37 36 33 32 33 35 35 35 35 35
15 17 19 21 23 24 26 27 29 29 30 30 30 31 32 33 34 35 36 37 37 37 37 36 35 36 37 38 39 39 39 37 34 35 37 39 40 40
16 18 20 21 22 22 23 24 24 25 25 25 25 26 27 28 30 31 33 35 36 37 37 37 36 35 35 36 37 38 40 41 42 39 36 37 40 43
16 18 19 19 20 21 22 22 23 23 22 23 23 23 24 25 25 26 28 31 33 34 36 36 36 36 35 35 35 35 37 38 40 42 42 40 38 39
15 16 17 18 19 21 22 22 22 22 22 22 22 23 23 23 24 24 25 27 30 32 33 34 35 36 37 37 37 36 37 39 40 42 43 44 44 44
13 14 16 18 20 22 23 23 23 23 23 22 22 21 21 22 22 23 24 25 26 28 30 32 34 36 37 38 39 39 38 38 39 41 43 44 45 46
12 13 15 18 21 23 24 25 25 25 24 23 22 20 20 20 21 22 22 23 25 26 28 30 33 35 38 40 40 41 40 40 39 39 40 41 43 45
11 12 15 19 22 24 25 27 28 28 27 26 25 23 22 21 21 22 22 23 24 25 27 28 30 32 36 39 41 43 43 43 42 41 40 39 39 41
10 12 15 18 21 23 25 28 29 30 29 28 26 25 24 24 24 24 24 25 25 26 26 27 28 29 31 34 37 40 41 42 43 43 42 41 39 39
10 12 14 17 19 22 25 27 29 31 31 30 28 27 27 26 25 25 25 26 26 27 27 27 28 28 29 30 32 34 37 40 41 42 42 42 42 41

GEFSNE_500_meanwind_018.txt.gz
Wind_Speed
34 36 38 35 32 29 27 28 28 28 29 29 28 28 29 29 29 29 29 29 30 31 33 34 36 38 39 41 41 41 41 41 41 41 42 43 42 41
32 32 31 29 27 25 26 27 27 28 29 29 29 29 30 30 31 31 31 30 31 31 32 33 35 37 39 41 42 41 40 40 41 41 40 40 41 41
28 27 25 24 23 24 25 26 27 28 29 30 30 31 32 32 33 33 33 33 33 33 33 32 33 35 39 40 41 42 41 39 39 39 38 38 38 40
24 23 22 22 22 23 24 26 27 29 30 31 31 32 32 34 35 36 36 36 36 35 35 34 34 34 36 38 40 40 40 39 39 38 38 37 37 38
21 21 21 21 22 23 25 26 27 28 29 30 31 32 33 34 36 37 38 38 38 37 36 35 35 35 35 36 38 39 40 39 39 38 37 36 35 35
20 21 21 22 23 24 24 25 26 27 28 30 31 32 34 35 36 37 38 38 39 38 37 36 35 35 34 34 35 35 36 37 37 37 36 35 34 34
19 20 20 21 21 22 23 24 25 27 28 29 31 32 33 34 35 36 37 37 37 37 36 36 35 35 35 33 32 32 32 33 34 34 34 33 33 33
19 19 19 20 20 22 23 24 25 26 27 29 30 31 33 34 34 35 35 35 35 35 35 35 35 35 34 33 32 30 28 29 31 32 32 33 33 34
19 19 20 20 21 21 22 23 24 25 26 28 29 30 31 32 33 34 34 34 34 34 34 33 34 34 33 33 32 30 27 26 27 31 33 34 34 34
18 18 18 18 18 19 20 20 21 23 24 25 26 28 29 31 32 33 33 33 34 34 33 32 31 31 31 31 32 30 26 24 24 26 29 32 33 33
15 15 15 14 14 14 15 17 19 20 22 24 25 27 29 31 32 33 33 33 33 33 33 32 31 30 30 30 29 29 27 23 23 23 24 27 29 30
11 11 10 11 12 12 14 16 18 20 22 24 27 29 30 31 32 33 34 33 33 32 32 31 31 30 29 29 27 27 27 25 21 21 23 23 25 27
8 8 8 9 11 13 15 17 19 22 24 26 28 29 31 31 32 32 32 31 31 30 30 29 29 28 27 26 25 25 25 25 24 22 21 23 24 26
7 8 9 10 12 14 16 18 20 22 25 27 29 30 30 30 30 29 28 28 28 27 27 26 26 26 25 24 24 23 22 23 23 23 22 21 22 24
8 9 10 11 13 14 16 18 21 23 26 28 29 30 30 29 28 27 26 25 25 24 24 24 25 26 25 24 23 24 24 23 22 23 22 22 22 23
9 10 10 11 13 14 16 19 21 24 26 28 29 29 29 28 27 26 25 24 23 22 21 21 23 24 24 25 25 25 25 25 24 24 25 25 24 24
10 10 11 11 12 13 15 18 20 23 25 26 27 27 27 26 25 24 23 23 23 22 21 20 21 22 22 24 26 27 27 27 27 26 28 28 28 30
11 11 11 11 12 13 14 16 19 22 24 25 26 26 26 25 24 23 22 22 22 22 21 20 20 21 22 22 24 27 29 30 29 29 30 31 32 33
12 12 11 11 11 11 13 16 18 21 23 24 25 26 26 25 24 23 22 22 22 22 22 21 20 21 21 21 23 26 29 32 33 34 34 34 34 35
14 13 12 11 11 10 12 15 18 20 23 24 26 27 27 26 25 24 23 22 23 23 23 22 22 22 22 22 23 23 26 29 33 35 37 38 38 39
15 13 12 11 10 10 11 13 17 20 23 25 27 28 29 29 28 26 25 24 23 23 23 23 22 23 23 23 23 23 24 26 30 33 37 40 41 42
16 14 14 12 11 10 10 12 15 18 22 25 28 29 31 32 31 30 28 27 25 24 24 23 23 23 23 24 24 24 25 26 28 30 33 37 40 43
17 16 16 14 13 12 11 13 15 18 21 24 27 30 32 33 33 33 32 30 28 26 24 23 23 22 22 23 23 24 24 25 27 29 31 33 36 40

GEFSNE_500_meanwind_024.txt.gz
Wind_Speed
41 40 38 35 32 29 27 27 28 29 29 28 29 30 30 29 29 29 29 29 29 29 29 29 29 29 30 30 30 30 30 31 33 34 35 36 36 36
37 35 33 30 27 25 25 26 28 29 29 28 27 28 27 27 27 27 28 28 29 30 30 30 30 31 31 31 31 32 32 32 32 34 35 36 37 37
30 29 28 26 24 23 23 24 24 25 25 25 25 24 25 26 26 26 27 27 29 29 30 31 31 32 33 33 34 34 34 34 34 35 35 36 37 38
26 26 25 24 23 22 22 23 23 22 21 22 23 23 23 24 25 26 27 28 29 31 32 32 33 34 35 36 37 37 37 37 37 37 37 37 38 39
25 24 24 23 23 21 20 20 19 19 19 19 21 22 22 23 24 26 27 28 30 32 33 34 35 37 38 38 39 40 40 40 41 41 40 40 40 40
25 25 24 23 21 18 17 17 16 16 17 18 19 20 22 23 25 27 28 30 32 33 35 36 37 38 39 40 40 41 42 42 42 43 43 42 42 42
24 22 21 19 17 16 15 15 15 15 17 18 20 22 23 25 26 28 30 32 33 35 37 38 39 40 40 41 41 41 42 42 43 43 44 43 43 43
19 18 17 15 15 15 15 15 15 16 18 19 21 22 24 25 26 28 29 30 32 33 35 36 38 39 40 41 41 41 41 41 42 42 43 42 42 42
15 14 13 14 14 14 14 14 15 16 17 18 19 20 21 22 24 25 27 28 30 31 33 34 35 36 37 38 39 39 39 40 40 40 40 40 40 40
11 10 10 11 11 11 12 12 13 14 15 15 16 17 19 20 21 23 25 27 29 31 32 34 35 36 36 36 37 37 37 37 38 37 37 38 37 38
8 8 8 8 8 9 9 10 11 11 12 12 13 15 17 20 22 24 26 28 30 32 33 34 35 36 36 36 35 35 35 35 35 35 34 34 34 34
7 7 7 7 7 7 7 8 8 9 10 11 13 15 18 21 23 25 27 29 31 32 33 34 34 34 34 34 33 33 33 33 33 32 32 31 30 30
6 6 6 6 6 6 6 6 7 8 10 12 14 16 18 20 22 24 25 27 28 29 30 30 30 30 30 30 30 30 30 29 29 29 27 26 26 26
7 7 7 7 6 6 6 6 7 8 10 12 13 15 16 18 20 22 23 24 25 25 26 26 26 26 25 25 26 26 26 26 25 25 24 23 22 21
8 7 7 7 7 6 6 6 7 8 9 11 12 14 16 19 21 22 23 23 24 24 23 23 23 22 21 22 23 23 24 23 23 22 21 21 19 19
9 8 8 7 7 7 6 6 6 7 9 10 12 15 17 19 21 23 24 24 24 23 23 22 21 21 20 20 20 21 22 23 23 22 22 21 19 17
9 9 9 8 8 7 6 6 5 6 8 10 12 15 18 20 22 24 25 25 25 24 23 23 22 21 20 20 19 19 20 21 23 24 24 22 20 19
10 10 9 9 9 8 6 5 5 6 7 9 12 15 18 20 23 24 26 26 26 26 25 24 23 21 20 19 19 19 19 20 21 23 25 25 24 22
10 10 10 10 9 8 6 5 5 5 6 8 11 14 17 20 22 25 27 28 29 28 27 26 24 22 21 19 19 19 19 19 20 22 24 26 28 28
11 11 11 10 10 9 7 7 6 6 6 8 10 13 16 19 21 24 27 29 30 31 30 28 26 23 21 19 18 18 18 19 19 20 22 25 29 32
12 12 12 12 11 10 10 9 9 8 8 8 9 11 14 18 20 23 26 29 31 32 32 31 29 26 23 20 19 18 18 18 19 20 21 23 26 30
14 14 14 13 13 13 13 12 12 11 10 10 10 12 14 17 20 23 26 28 30 31 32 32 31 29 26 23 21 19 18 18 19 20 21 22 25 28
15 15 15 15 15 15 15 14 14 13 13 13 14 14 16 18 21 23 26 28 30 32 33 33 33 31 29 26 23 21 20 19 19 19 21 22 24 26

GEFSNE_500_meanwind_030.txt.gz
Wind_Speed
39 39 38 38 37 36 36 35 34 32 30 29 28 28 29 30 31 32 33 34 35 35 35 35 34 33 33 33 33 33 34 34 34 33 34 34 33 33
38 38 37 36 35 34 33 31 30 29 28 27 26 26 27 28 30 32 33 35 37 37 36 35 35 35 35 35 36 36 35 35 35 35 35 35 36 36
35 34 34 33 32 30 29 27 26 25 24 24 24 25 27 28 29 30 31 33 34 35 35 34 33 33 34 34 35 36 36 36 36 36 36 37 37 37
30 30 29 28 26 25 25 24 23 22 22 22 23 25 26 27 27 28 29 30 31 32 32 31 31 31 32 32 33 34 35 36 37 38 39 40 40 40
27 27 26 26 24 24 23 22 21 22 23 23 24 24 24 24 25 25 25 25 25 26 28 30 30 31 32 33 34 35 36 38 39 41 41 42 43 43
24 25 25 25 24 23 22 21 22 22 22 22 22 23 23 22 21 20 20 21 22 23 25 26 28 30 32 33 35 37 38 40 42 43 44 45 46 47
23 23 23 23 23 23 22 21 21 21 21 20 20 19 18 17 17 16 17 18 20 21 23 25 27 29 31 33 36 38 40 42 44 45 46 47 49 50
21 22 23 23 23 22 22 21 20 19 18 17 16 15 15 15 15 15 16 17 19 20 22 24 26 28 30 32 35 37 39 42 44 46 48 50 51 52
18 21 22 21 20 20 20 19 17 16 15 15 14 14 13 13 13 14 15 16 18 20 22 24 26 28 30 33 36 38 40 43 45 47 48 50 51 52
16 18 18 18 17 18 17 16 15 13 13 13 12 12 11 11 12 13 14 16 17 19 21 24 26 28 30 33 36 38 41 43 45 47 48 49 50 50
14 14 15 15 15 15 14 13 12 11 11 10 9 9 9 9 10 11 12 14 15 18 20 22 24 26 29 31 34 36 39 41 44 46 47 48 48 49
14 13 13 13 13 13 12 11 11 9 8 8 8 8 8 8 9 9 10 12 14 15 17 19 21 24 26 29 31 33 35 37 39 41 42 44 45 46
13 12 12 13 12 11 11 10 9 8 8 7 7 6 6 6 7 7 8 10 11 13 15 17 20 22 25 27 29 31 32 33 34 35 36 37 39 40
13 13 14 13 12 11 11 10 9 8 7 6 5 5 4 4 4 5 6 7 9 12 14 17 20 22 25 27 29 30 30 30 30 31 32 32 33 34
14 14 13 13 12 11 11 10 9 8 7 6 5 4 3 2 2 3 5 7 9 12 15 18 21 23 25 27 28 28 28 28 28 27 28 28 28 28
15 14 13 12 12 11 10 9 9 8 6 6 5 4 2 1 1 2 4 7 10 13 16 19 22 24 26 27 27 26 26 26 26 26 25 24 24 24
16 15 13 12 11 11 10 9 9 8 7 7 6 4 3 2 0 2 5 7 10 14 17 19 22 25 27 27 27 26 25 24 23 23 23 23 23 23
16 14 13 12 11 11 10 10 10 9 9 8 7 5 3 2 1 3 5 8 11 14 17 20 22 25 27 28 28 28 26 24 22 21 21 20 20 21
15 14 13 12 11 11 11 11 11 10 10 9 7 6 4 3 2 4 6 9 12 15 18 20 22 25 27 29 29 29 28 26 24 22 20 19 19 19
16 14 13 12 12 11 11 11 12 12 11 10 9 7 6 5 5 6 8 10 13 15 18 20 22 24 26 28 28 29 29 28 26 24 22 20 19 18
16 15 14 13 12 12 12 12 13 13 13 12 11 9 9 9 9 10 11 13 15 17 18 20 22 24 26 27 28 29 29 29 28 26 24 22 21 19
16 15 14 14 13 13 13 14 14 14 14 14 13 12 12 12 13 14 15 16 17 18 20 21 22 24 26 27 29 29 30 30 30 29 27 25 23 21
16 15 15 15 14 14 14 15 15 15 16 16 15 15 16 16 17 18 18 19 20 20 22 23 24 25 26 28 29 30 31 31 32 32 30 28 26 24

GEFSNE_500_meanwind_036.txt.gz
Wind_Speed
32 33 34 35 36 37 37 36 36 36 35 35 35 34 34 34 33 33 32 32 33 33 34 35 36 36 35 36 36 37 37 37 36 37 36 36 36 36
31 31 32 33 35 35 36 36 36 36 35 34 34 34 33 32 31 30 31 32 32 32 33 34 36 38 38 38 39 39 40 39 38 37 36 37 38 38
29 29 30 31 32 33 34 34 34 34 34 33 33 32 31 31 30 29 29 28 30 30 31 33 35 36 37 38 40 42 42 42 41 39 38 39 40 41
28 27 28 28 29 30 31 32 32 32 31 32 31 31 29 29 29 29 27 27 27 28 30 32 32 34 36 37 39 40 42 43 42 41 40 39 38 39
27 26 25 25 27 28 28 29 29 29 30 30 30 29 28 27 28 27 27 27 27 27 27 28 29 31 33 34 35 37 38 39 39 39 39 38 37 38
26 25 23 23 24 25 26 26 26 26 27 27 27 27 27 27 28 28 27 25 24 23 22 23 24 25 26 27 28 30 31 32 33 35 36 36 36 36
26 24 23 22 22 23 24 25 25 25 26 27 28 29 28 27 27 26 25 24 23 21 21 20 20 20 21 22 23 24 26 28 29 31 32 34 35 37
25 24 22 22 23 24 25 24 25 25 26 27 28 28 27 26 25 23 23 22 21 20 18 17 17 17 17 18 19 20 21 23 26 28 30 32 34 37
25 23 23 22 22 23 25 24 24 25 25 25 25 25 24 22 20 20 18 17 15 14 14 14 13 14 14 16 17 19 21 23 25 27 30 32 35 37
24 22 22 23 22 22 22 24 25 24 24 24 24 23 21 19 17 16 14 13 13 12 12 12 13 13 14 15 17 19 21 23 26 28 31 34 36 39
25 23 22 23 24 23 22 23 24 25 23 22 21 19 17 15 14 13 13 12 12 11 11 11 11 11 13 14 16 18 20 22 25 28 31 34 38 41
24 22 22 22 22 22 21 22 23 22 21 19 18 16 15 14 12 12 12 11 10 9 9 9 9 10 11 12 14 16 19 21 24 27 30 33 36 39
23 21 21 22 22 21 21 21 20 19 18 17 16 15 14 13 12 11 10 9 8 8 7 7 7 8 9 11 13 16 19 21 24 26 28 31 33 35
22 21 21 21 21 21 20 20 19 18 17 16 15 14 13 12 11 10 9 8 8 7 6 5 6 7 8 11 13 16 19 21 23 25 27 29 30 32
23 22 21 21 20 19 19 19 19 18 17 16 14 13 13 12 12 11 10 9 8 7 6 5 5 6 8 11 13 16 19 21 23 25 27 28 29 31
24 23 23 22 21 20 20 20 19 18 17 15 14 14 13 13 12 11 10 9 8 6 5 4 5 6 8 11 14 17 19 22 24 25 27 28 29 30
25 25 24 23 22 21 21 20 19 18 17 16 15 14 14 13 12 11 11 10 8 7 6 5 6 7 9 12 15 17 20 22 24 25 27 28 29 30
26 26 25 24 23 22 21 20 19 18 17 16 15 15 14 14 13 12 12 10 9 8 8 8 8 10 11 13 16 18 20 22 24 26 27 28 29 30
28 27 26 24 23 22 21 20 19 18 17 17 16 15 15 15 14 14 13 12 11 10 10 10 11 12 14 15 17 19 21 22 24 26 27 28 29 30
29 28 26 24 23 22 21 20 19 18 18 17 17 16 16 16 15 14 14 13 13 13 13 13 14 15 16 18 19 20 22 23 24 26 27 29 31 31
29 27 26 24 23 21 20 19 18 18 17 17 17 17 17 16 16 16 15 15 15 15 16 16 17 18 20 21 21 22 23 24 25 27 28 30 32 33
30 28 26 24 22 20 19 18 17 17 17 17 17 17 17 18 18 17 17 17 17 18 18 19 20 21 22 23 23 24 24 25 26 27 29 31 33 34
29 27 24 23 21 19 18 17 16 16 16 17 17 17 18 18 19 19 20 19 19 20 21 22 23 23 24 24 25 26 27 28 29 30 31 33 34 35

GEFSNE_500_meanwind_042.txt.gz
Wind_Speed
32 30 30 29 28 27 27 26 25 25 26 26 27 27 26 26 25 25 24 25 25 26 26 27 28 29 31 31 32 32 33 33 33 33 34 35 36 37
33 31 30 28 27 27 26 25 25 25 25 26 26 26 26 26 25 24 24 25 25 26 27 28 28 28 29 30 30 31 31 31 31 32 32 32 33 34
34 32 30 28 27 27 26 25 25 25 24 24 24 24 25 25 25 24 24 25 25 25 25 25 26 28 29 29 29 29 30 31 31 32 34 34 34 35
34 32 30 29 28 27 26 25 25 24 24 24 24 24 25 25 25 24 24 23 24 24 25 25 26 26 27 28 28 28 28 30 31 32 34 35 36 36
35 33 31 29 28 27 27 25 24 24 23 23 23 24 24 24 25 24 24 23 23 23 23 23 24 24 24 25 26 26 27 28 29 30 31 33 34 35
37 34 32 30 28 27 26 24 23 23 22 21 21 22 23 23 23 23 24 24 23 22 21 21 22 22 22 23 23 24 24 25 25 27 29 31 33 35
39 36 33 31 29 27 27 25 23 22 22 21 21 22 22 22 22 21 21 21 21 21 20 20 20 20 20 20 20 20 21 21 21 23 24 25 26 29
39 36 34 32 29 28 27 25 23 22 21 21 21 21 21 21 21 21 21 21 22 22 22 21 19 19 19 18 18 17 17 17 17 18 19 20 20 21
38 37 35 32 30 28 27 26 24 23 22 21 21 21 21 20 21 21 20 20 20 20 20 18 17 17 16 15 15 14 14 15 14 15 15 16 18 19
41 39 36 33 31 29 28 27 26 24 23 21 20 21 21 21 22 21 20 19 18 17 17 15 14 13 12 11 11 10 10 10 11 11 13 14 15 16
43 40 37 34 32 30 28 27 25 24 22 22 21 20 21 20 19 19 18 16 15 15 14 14 13 11 10 10 9 9 9 9 9 10 12 13 14 16
44 42 39 35 33 30 29 26 25 23 22 21 22 21 21 20 19 18 16 14 14 14 14 12 11 10 9 8 8 7 7 8 8 9 11 12 14 15
43 42 38 35 33 30 29 27 24 23 22 21 21 20 20 18 18 16 15 14 14 13 12 11 10 9 8 7 7 6 6 7 8 9 11 12 14 16
41 39 36 34 31 30 28 26 24 22 22 20 20 19 18 17 17 16 15 14 13 12 12 11 10 9 8 7 6 6 6 7 8 9 11 12 14 16
38 36 34 32 30 28 27 25 24 23 21 19 19 18 18 17 16 15 14 14 14 13 12 11 10 9 8 7 6 6 6 7 9 10 11 13 15 17
35 33 32 30 28 27 25 23 22 22 20 19 18 18 18 17 15 15 15 14 13 13 12 11 10 9 8 7 7 7 8 9 11 12 14 15 17 18
34 31 29 28 27 25 24 23 22 21 20 19 18 18 18 17 17 16 15 14 13 12 12 11 10 9 9 8 9 10 11 13 14 15 17 18 19 21
34 32 30 28 26 25 25 24 23 21 20 19 19 18 17 17 17 16 14 13 13 12 12 11 10 10 10 11 12 13 15 16 17 19 20 21 22 24
34 32 30 28 27 26 25 25 23 22 21 20 19 18 17 17 16 15 14 14 13 13 12 12 11 12 12 14 15 17 18 20 21 22 23 24 25 26
34 31 29 28 27 26 25 24 23 22 21 20 19 18 17 16 15 14 14 13 12 12 12 13 13 14 15 17 19 20 21 23 24 25 26 27 28 29
33 32 30 28 27 26 25 24 23 22 21 20 18 17 16 15 14 14 13 13 12 13 13 15 16 17 19 20 21 23 25 26 27 28 28 29 30 30
33 31 30 28 27 26 24 24 23 22 20 19 17 16 15 14 14 13 13 13 13 14 15 17 18 20 22 23 25 26 27 28 29 29 30 30 31 32
32 31 30 28 27 26 25 23 22 20 19 18 16 15 14 13 13 13 13 14 15 16 18 19 21 22 24 26 27 28 29 29 29 30 30 31 32 33

GEFSNE_500_meanwind_048.txt.gz
Wind_Speed
40 38 36 34 33 32 31 29 27 26 25 25 24 23 23 23 23 24 24 24 24 24 24 25 25 26 27 29 30 32 34 35 36 36 36 36 35 35
42 41 39 37 35 34 33 31 29 27 25 25 24 23 23 22 23 23 23 24 24 25 25 25 24 25 26 27 28 29 31 31 33 34 35 34 34 33
45 43 41 40 38 36 34 32 31 28 26 25 24 23 23 22 22 23 24 24 24 25 25 25 25 25 25 26 27 28 29 29 30 31 32 32 33 32
48 46 44 42 40 38 36 33 32 30 27 25 24 23 23 22 22 22 23 23 24 24 24 25 25 26 25 25 26 27 27 27 28 28 29 30 31 32
51 49 47 45 42 40 37 34 32 30 28 25 23 22 22 22 22 22 22 23 24 24 25 25 25 25 25 25 25 25 25 26 26 27 27 27 28 30
53 50 48 46 44 42 38 35 33 31 29 26 24 23 21 21 21 21 22 22 23 24 24 24 23 23 24 24 24 24 24 24 24 25 26 27 27 28
54 52 49 47 44 42 39 36 33 31 29 27 24 23 21 21 20 20 20 21 22 23 23 23 22 22 22 22 22 22 22 22 23 23 24 25 26 28
56 53 51 48 45 43 40 37 35 32 30 28 25 24 22 21 20 19 19 19 20 20 21 21 21 20 20 20 20 21 21 21 21 21 22 23 23 24
59 55 53 49 46 43 41 38 35 33 30 28 26 24 22 21 20 19 19 19 19 20 20 20 19 20 20 20 20 20 19 19 18 18 18 19 19 20
59 57 54 51 47 44 42 38 35 33 31 28 26 24 22 20 19 19 19 19 19 19 19 19 19 18 18 19 18 18 18 18 17 17 17 17 16 16
56 56 55 52 49 45 42 38 36 33 31 29 27 24 22 20 19 19 18 18 19 19 19 19 20 19 18 18 18 17 17 16 16 15 15 15 15 15
50 53 54 52 50 47 42 39 36 33 31 29 26 24 22 21 20 19 18 18 19 19 18 18 18 19 18 17 17 16 15 15 14 14 13 13 12 12
44 48 51 51 50 47 43 40 37 33 30 28 26 24 22 21 20 19 19 19 19 19 18 17 17 17 16 16 16 15 15 14 14 13 12 12 12 12
40 44 47 49 48 46 43 40 37 33 30 28 25 23 22 21 20 19 19 19 19 19 18 18 18 17 17 17 17 16 15 14 13 13 12 12 12 12
37 42 44 46 46 45 43 41 37 33 30 28 25 23 22 21 20 20 20 20 19 19 19 18 18 18 18 17 17 16 15 14 13 12 12 12 12 13
36 40 42 45 45 44 42 40 36 33 30 28 26 24 22 22 21 20 20 19 19 19 19 19 19 18 18 17 16 16 15 14 13 13 13 13 14 15
35 39 41 43 44 42 40 38 35 32 30 28 25 23 23 22 21 20 20 20 20 20 20 20 20 19 18 17 16 15 14 14 14 14 15 15 17 18
34 37 38 40 42 40 38 36 33 31 29 28 26 24 23 22 21 21 21 21 21 21 21 21 21 20 18 17 16 15 15 15 15 16 17 18 20 21
35 36 37 39 40 39 36 34 32 30 28 27 26 25 23 23 22 22 22 22 22 22 22 21 20 19 18 17 16 16 16 16 17 18 20 21 22 24
36 37 37 37 38 36 34 33 31 29 29 27 26 26 25 25 25 24 23 23 22 22 21 20 19 19 18 17 17 17 18 18 19 21 22 24 25 27
37 37 37 37 37 35 34 33 31 30 29 28 27 27 27 26 25 24 23 23 22 21 20 19 19 18 18 17 18 18 19 21 22 23 25 27 28 29
37 37 35 35 35 34 33 32 30 30 29 29 28 28 27 26 25 24 23 22 22 21 19 19 18 18 18 19 19 20 21 23 24 26 27 28 29 31
34 34 33 34 34 32 32 32 31 31 30 30 29 28 27 26 25 24 23 22 21 20 19 19 19 19 19 20 21 22 24 25 27 28 29 30 32 33

GEFSNE_500_meanwind_054.txt.gz
Wind_Speed
47 45 43 42 40 38 36 34 31 30 29 28 26 25 24 23 23 23 23 22 23 24 24 25 27 28 30 31 31 32 33 34 35 37 38 40 41 40
52 51 48 46 45 42 40 37 34 32 30 30 28 26 25 24 23 23 23 23 22 22 23 24 25 27 29 30 30 31 32 33 33 34 35 36 37 38
58 56 54 51 49 46 43 41 37 34 32 31 30 28 26 25 24 23 23 23 22 22 23 24 24 24 26 27 28 29 30 31 31 32 33 33 34 35
62 61 59 56 53 50 47 44 41 37 34 32 31 29 27 25 24 24 23 23 22 22 22 22 23 24 24 25 26 25 26 27 28 29 30 31 33 34
66 64 62 60 57 54 50 47 44 41 37 34 32 30 28 26 25 24 23 22 22 21 22 22 23 23 23 23 24 24 24 25 26 27 28 29 29 31
70 68 65 63 60 57 54 50 47 43 40 37 34 31 29 27 25 24 23 22 21 21 21 22 22 22 22 22 23 23 23 23 24 25 25 26 27 28
72 70 67 64 61 59 56 52 49 46 43 39 35 32 30 28 25 24 24 22 21 21 21 21 22 22 23 22 23 23 23 23 23 24 25 25 26 27
68 69 67 65 61 59 57 54 51 48 44 41 37 34 31 29 27 25 24 23 22 22 22 22 21 22 23 23 23 23 23 23 23 23 24 24 25 26
57 62 65 64 61 59 57 55 52 49 45 42 38 35 32 30 28 26 25 24 22 22 22 21 21 22 22 22 22 22 22 22 23 23 23 24 24 24
44 51 58 61 60 58 56 54 52 49 46 43 39 36 34 31 28 27 25 24 22 22 22 21 20 20 21 21 22 22 21 21 21 21 21 21 21 21
36 41 48 54 57 57 55 53 52 49 47 43 40 37 35 32 29 27 25 23 22 21 21 20 20 20 20 21 21 21 21 21 21 21 20 20 20 20
33 35 40 46 51 54 54 52 51 48 46 44 41 38 35 32 29 27 25 24 23 22 21 21 20 20 20 20 20 20 19 19 19 19 18 18 18 18
31 32 35 39 45 49 51 51 50 48 46 44 41 38 35 32 30 28 26 24 23 22 22 21 20 20 20 20 19 19 19 18 18 18 17 17 17 16
29 31 33 36 40 45 48 49 50 49 46 44 42 39 35 32 30 28 26 25 24 22 22 22 21 20 20 19 19 18 18 18 17 17 16 16 15 15
29 30 32 34 37 42 46 47 49 48 46 44 41 38 35 32 30 28 27 25 23 22 21 21 20 20 19 19 18 17 17 17 16 16 16 15 15 15
26 29 32 33 36 41 44 47 48 47 45 43 41 38 36 33 31 29 27 25 23 22 21 20 19 19 19 18 18 17 17 16 16 16 16 15 15 15
25 27 30 32 35 40 44 46 47 47 45 42 40 38 35 33 31 29 28 26 24 21 21 20 19 19 19 18 18 18 17 17 17 17 16 16 16 16
24 25 28 32 36 41 44 46 47 46 44 41 39 38 35 33 30 28 26 25 24 22 22 21 20 19 18 18 18 18 18 18 17 17 16 16 16 16
22 24 27 31 37 41 44 44 45 45 43 40 39 37 35 32 30 28 26 25 24 23 22 22 21 20 19 19 19 19 18 18 18 17 17 17 18 19
20 22 26 32 39 41 42 44 44 44 42 40 38 36 34 32 30 28 26 25 25 23 22 22 21 20 20 20 19 19 19 19 19 19 19 19 20 21
19 23 28 34 39 41 42 43 43 42 40 39 37 35 33 31 29 28 27 26 25 23 23 22 22 21 20 20 20 20 20 20 20 20 21 22 23 24
19 23 29 37 38 40 41 43 43 40 38 37 35 34 32 30 28 27 26 26 25 24 23 22 22 21 21 21 21 21 21 21 22 22 24 25 26 27
23 26 31 36 37 39 40 41 40 38 37 35 33 32 30 28 28 27 26 25 24 23 22 22 22 21 21 21 21 21 22 22 23 25 26 28 29 31

GEFSNE_500_meanwind_060.txt.gz
Wind_Speed
53 51 50 48 47 47 45 43 42 41 40 38 36 34 31 29 27 25 24 23 22 21 21 21 21 22 23 24 25 27 29 31 32 33 35 36 36 38
59 57 56 55 52 51 50 48 46 45 43 41 39 37 34 32 29 27 25 24 24 23 23 22 21 21 22 23 24 26 28 30 31 32 34 35 36 36
66 64 62 60 58 56 54 53 50 48 47 44 42 39 37 34 32 29 27 26 25 24 23 23 22 21 21 22 23 24 25 27 29 30 31 32 33 35
71 70 68 65 63 61 59 56 54 51 50 48 46 43 40 37 34 31 29 27 26 25 24 23 22 22 22 22 22 23 23 24 26 28 29 30 31 32
72 74 73 72 69 65 62 61 59 55 53 51 50 47 43 40 37 34 31 29 27 25 25 24 23 22 22 22 22 22 23 23 24 25 27 28 29 30
70 72 74 76 75 72 69 65 62 60 56 54 52 50 46 42 39 36 34 31 29 26 25 24 23 23 22 21 21 21 22 22 22 23 25 26 27 28
65 67 70 73 76 76 74 71 67 64 61 58 54 52 49 45 42 39 36 33 30 28 26 25 24 23 23 22 21 21 21 20 21 21 22 23 24 26
57 60 63 67 71 74 75 74 71 68 64 61 58 54 51 47 44 41 38 35 32 29 27 25 24 23 23 22 21 21 20 20 20 20 21 20 21 22
49 52 55 59 63 69 73 74 73 70 66 63 61 56 52 49 45 42 39 37 33 31 28 26 25 24 22 22 21 21 21 21 20 20 20 20 20 20
42 44 47 50 54 59 66 70 71 71 70 66 60 56 53 50 48 44 40 37 34 31 29 27 25 24 23 22 21 21 21 21 20 20 20 21 21 21
37 38 40 41 45 50 55 61 66 69 68 66 63 57 52 49 46 44 41 37 34 32 30 28 26 25 24 22 21 21 21 20 20 20 20 20 20 20
35 35 35 36 38 42 45 50 56 61 64 64 61 57 53 49 46 43 41 38 35 32 30 28 26 25 23 23 22 21 20 20 20 20 20 20 20 21
34 33 32 33 34 37 39 43 48 54 59 60 59 56 53 50 46 43 41 38 35 32 30 29 27 25 24 23 22 21 21 20 20 20 20 20 20 20
32 32 32 32 32 34 36 40 45 50 54 56 57 55 52 50 48 45 42 38 35 33 31 29 27 25 24 23 22 22 21 20 20 20 20 19 19 19
31 32 31 31 31 31 33 38 43 47 50 53 55 54 51 49 48 45 42 39 36 34 32 30 27 26 24 23 23 22 21 21 21 21 20 20 19 18
30 30 30 30 30 30 30 34 41 45 48 50 52 52 50 48 47 45 42 39 37 34 32 29 28 26 25 24 23 22 21 21 21 20 20 19 19 19
29 29 29 28 28 29 30 33 39 44 46 48 51 51 49 47 46 44 42 39 36 33 31 29 27 26 25 24 23 22 21 21 20 20 20 19 19 18
27 27 27 27 27 28 30 34 38 42 45 47 49 50 49 46 45 43 41 39 36 34 32 30 28 26 25 23 23 22 21 20 20 20 19 19 19 18
24 25 26 26 27 28 30 34 38 42 44 46 48 48 47 45 44 42 40 38 36 33 31 29 28 26 24 23 22 22 21 20 19 19 19 19 19 19
22 23 24 26 27 28 30 33 37 41 43 45 47 47 46 44 41 40 38 37 35 32 30 29 27 25 24 23 22 21 20 19 19 19 19 20 20 20
19 21 23 25 27 29 30 34 39 40 41 43 45 45 44 43 40 39 37 36 33 31 29 28 26 25 23 22 22 21 20 19 19 19 20 20 21 21
16 19 22 25 26 28 32 36 39 40 42 45 45 45 43 41 39 37 35 33 31 30 28 27 25 24 23 22 22 21 21 20 20 20 20 21 22 23
14 16 19 22 24 28 33 35 38 40 41 43 44 44 41 39 37 36 34 33 31 29 27 26 25 24 23 22 22 21 21 21 21 21 22 23 24 24

GEFSNE_500_meanwind_066.txt.gz
Wind_Speed
48 48 47 46 46 45 44 43 42 41 39 39 39 39 37 36 34 32 31 28 26 24 22 20 19 18 17 16 16 17 18 20 21 23 24 26 27 29
51 51 51 50 51 49 48 47 46 44 42 41 40 39 39 38 37 36 34 31 29 27 25 23 21 20 19 18 18 18 19 20 21 22 24 25 27 28
55 55 54 54 54 54 52 51 49 47 45 44 43 42 41 40 40 39 37 34 32 30 27 25 24 22 21 20 20 20 20 20 21 22 23 24 26 28
56 57 57 57 56 56 56 55 54 52 49 47 45 43 43 42 41 41 39 38 35 32 30 28 26 24 23 22 21 21 21 21 21 22 23 24 25 27
57 59 60 61 60 59 58 57 57 56 54 51 49 47 45 44 43 41 41 40 38 35 32 30 28 26 24 23 22 22 22 21 22 22 22 23 24 25
58 59 61 62 63 62 62 60 59 59 58 56 53 49 49 47 45 43 42 41 40 37 35 32 30 27 25 24 23 23 23 22 22 22 23 23 23 24
57 58 60 62 63 65 64 63 62 61 61 58 57 54 52 49 48 45 44 43 41 40 37 35 32 29 27 25 25 24 23 23 23 23 23 22 22 23
55 56 57 59 60 64 65 66 65 63 62 62 60 58 56 52 51 48 45 45 43 42 40 37 33 30 28 27 25 25 24 23 23 22 22 22 22 22
52 53 54 56 57 59 62 64 66 65 65 64 62 61 58 56 54 52 47 45 45 43 41 38 35 32 30 28 26 25 24 23 23 22 22 22 22 22
47 49 50 50 52 53 56 58 61 63 64 66 65 63 60 57 54 52 52 49 44 43 41 39 36 34 31 30 28 26 25 24 23 22 21 21 21 20
42 44 45 46 47 48 50 53 55 58 61 63 64 64 61 59 57 55 52 49 45 43 42 40 38 35 33 31 29 27 26 25 23 22 21 20 20 20
38 39 41 43 43 44 44 46 48 50 54 57 59 61 61 59 57 55 53 50 47 44 42 40 38 36 33 31 29 28 27 25 23 22 21 20 20 20
33 34 36 38 40 40 39 40 42 44 46 49 51 54 57 58 56 55 53 50 47 43 42 40 39 36 34 32 30 28 27 25 23 22 21 20 20 19
30 31 32 33 35 36 36 36 37 39 41 43 46 48 51 53 54 54 52 49 47 44 42 41 39 36 33 31 29 28 26 25 23 22 21 20 20 19
27 28 29 30 32 33 33 33 33 34 36 39 42 44 46 47 49 49 49 47 46 45 42 40 38 36 34 31 29 28 26 24 23 22 21 20 19 18
25 26 26 27 28 29 30 30 30 30 32 35 38 41 43 44 46 46 46 46 45 45 43 40 39 36 34 33 30 28 26 25 23 22 21 20 19 18
24 24 25 26 26 27 27 28 28 29 30 33 36 38 40 42 43 44 43 45 45 45 43 40 37 35 33 32 30 29 27 25 23 22 21 20 19 19
22 23 24 24 24 25 25 26 27 27 29 33 35 36 38 40 41 42 42 44 44 43 42 39 36 34 33 31 29 28 26 24 23 22 21 20 19 18
21 23 24 23 23 23 24 24 24 26 28 32 33 35 37 39 40 41 41 42 43 42 41 39 37 35 32 29 27 26 25 24 22 21 21 20 19 18
19 21 22 22 22 22 22 22 23 25 28 31 34 35 36 38 40 41 41 42 42 41 41 40 37 34 31 29 27 26 24 23 22 21 20 20 19 18
16 19 20 21 22 22 21 21 22 25 27 31 34 35 36 38 40 40 41 42 41 41 39 37 36 34 32 29 27 26 24 23 22 21 20 19 19 18
13 15 17 19 20 20 21 21 22 24 27 30 33 34 35 38 40 41 41 41 40 39 37 35 35 33 31 29 27 26 24 23 22 21 20 20 19 19
12 14 15 17 18 19 19 21 22 24 27 30 32 34 36 39 40 40 40 40 39 37 36 34 32 31 29 28 26 25 24 22 22 21 21 20 20 20

GEFSNE_500_meanwind_072.txt.gz
Wind_Speed
41 41 41 41 41 41 40 41 39 40 40 40 40 40 39 39 38 38 37 35 33 32 30 28 26 24 22 20 18 16 15 14 13 13 13 14 15 17
42 43 44 44 44 43 44 44 44 42 41 41 42 42 41 41 41 40 39 38 36 35 33 31 29 26 24 22 20 18 16 14 13 13 13 14 15 16
44 44 45 46 46 46 45 47 47 46 44 43 44 44 43 43 43 43 43 41 39 37 36 34 32 29 27 24 22 20 18 16 14 14 14 14 15 16
47 47 47 47 48 49 49 48 49 49 48 48 46 46 44 45 45 45 45 44 42 41 39 37 35 32 29 27 25 22 20 18 17 15 15 15 16 16
49 50 50 50 50 50 51 51 52 52 51 50 49 48 48 47 46 46 46 46 45 43 42 40 38 35 32 30 28 25 23 21 19 17 17 16 16 17
50 51 52 53 53 53 53 53 54 54 53 53 51 51 50 49 48 47 47 47 46 46 44 42 40 38 35 33 30 27 25 23 20 19 18 17 17 17
51 51 52 54 55 55 55 55 56 56 56 55 54 54 53 51 48 47 47 47 46 46 46 45 43 41 38 35 32 29 26 24 22 20 20 19 18 18
49 50 52 54 55 56 57 57 58 58 58 57 56 56 56 54 50 48 48 48 47 46 47 46 45 43 41 38 35 31 29 26 24 22 21 20 19 18
47 49 50 52 53 55 57 58 59 59 59 59 59 58 57 56 53 50 49 49 48 47 47 47 46 44 43 40 37 34 31 28 26 24 22 21 20 19
43 45 47 50 51 53 55 57 58 59 60 59 60 60 59 58 56 54 52 50 49 49 48 46 45 45 44 42 39 36 33 30 28 25 24 22 20 20
38 41 43 46 49 50 52 54 56 57 58 59 59 61 61 60 58 57 55 53 51 48 47 46 45 44 44 43 40 37 34 32 29 27 25 23 22 20
33 35 38 41 44 47 49 51 52 55 56 57 58 58 60 61 60 58 56 54 51 49 47 47 46 45 43 43 42 39 36 33 31 28 26 24 23 21
27 29 33 37 39 42 44 46 49 52 54 55 57 57 57 58 59 58 56 55 52 49 46 45 45 45 44 42 42 40 37 34 32 30 28 25 24 22
23 25 28 32 35 38 40 42 46 48 50 51 54 54 55 56 57 57 56 54 53 50 48 46 45 45 44 43 41 40 38 35 33 30 28 26 25 23
19 21 25 29 32 34 37 39 41 44 46 47 48 50 52 53 55 56 56 55 53 50 48 46 44 45 44 43 41 40 39 37 34 31 28 26 25 24
16 19 22 25 28 32 35 37 38 40 43 44 45 47 49 51 52 54 55 55 54 51 49 47 44 44 43 42 40 39 38 37 34 32 29 27 25 25
13 17 21 24 26 30 32 34 35 37 39 40 42 43 45 48 49 51 52 53 53 52 49 48 47 45 44 43 41 38 36 35 33 31 30 28 27 26
12 16 20 23 25 27 29 31 33 35 37 38 39 40 42 45 46 48 49 50 51 51 49 48 47 45 44 43 41 38 36 35 33 31 30 29 27 26
12 15 19 22 24 26 28 29 30 33 35 36 37 38 40 42 45 45 47 49 50 50 50 48 46 45 44 43 41 39 36 34 33 32 30 29 28 27
12 16 18 21 23 25 26 28 30 32 33 34 35 36 38 41 44 44 46 48 49 50 50 49 47 45 44 43 41 39 37 35 33 32 31 30 28 27
10 15 17 19 22 23 24 25 27 29 31 32 34 35 36 39 42 43 45 47 49 49 49 47 46 46 46 43 41 39 38 36 34 33 32 30 29 28
9 13 15 18 20 21 23 24 25 27 28 30 32 33 35 38 41 43 45 46 48 48 47 46 47 46 44 42 40 39 37 36 35 34 32 30 29 28
7 10 13 14 17 19 21 22 23 24 26 27 29 31 33 36 39 42 45 46 47 47 47 45 46 45 44 42 41 39 37 36 35 33 32 30 29 28

GEFSNE_500_meanwind_078.txt.gz
Wind_Speed
39 39 39 39 40 41 41 40 40 40 41 41 42 42 43 42 41 41 40 40 39 37 36 34 33 32 30 28 26 24 22 21 20 19 18 18 17 16
40 41 41 41 41 42 42 42 42 42 42 43 44 44 45 44 43 43 42 41 41 39 38 36 35 33 31 29 28 25 24 22 21 19 18 17 16 16
41 41 41 42 42 43 43 43 44 43 43 43 44 45 46 46 46 44 44 43 42 41 40 39 37 35 33 31 29 27 25 24 22 20 19 17 16 15
41 42 42 42 43 44 45 45 45 46 45 45 46 46 47 48 48 46 46 46 45 44 42 41 39 37 35 33 30 28 27 25 23 22 20 18 17 15
42 43 44 44 44 45 45 46 47 48 49 48 48 48 48 48 49 48 48 48 47 46 45 43 41 39 37 35 33 31 29 27 25 23 21 19 18 16
42 43 44 45 45 46 47 47 48 49 50 51 51 50 49 49 50 49 50 50 49 48 47 46 44 42 40 37 35 33 31 29 27 25 23 21 19 18
42 43 43 44 45 47 48 49 49 50 51 52 53 52 51 52 51 51 52 51 51 51 50 48 46 44 43 40 38 36 33 31 29 27 25 23 21 20
41 42 43 44 46 47 48 50 51 51 52 54 54 55 54 54 55 54 54 54 53 52 51 50 48 47 45 43 41 38 36 34 31 29 27 26 24 22
40 41 42 43 45 47 49 50 52 53 54 54 56 55 56 55 56 56 55 55 54 54 54 52 50 48 47 45 43 41 38 36 34 32 30 28 26 24
38 39 40 42 44 46 48 50 51 53 54 56 57 57 57 56 56 58 57 56 56 55 55 54 52 50 48 47 45 43 40 38 36 34 32 30 28 26
36 37 38 40 42 44 47 49 51 53 54 55 57 59 60 58 56 57 58 58 56 56 55 54 52 51 49 48 47 45 43 40 39 36 34 32 30 28
32 34 36 37 39 41 43 47 50 52 54 55 57 59 60 60 58 57 57 58 57 55 55 54 53 52 50 49 48 47 45 43 41 39 36 34 32 30
29 30 32 33 36 38 40 43 46 49 52 54 57 59 60 61 59 58 58 57 56 56 55 54 53 53 52 50 49 48 47 45 43 41 38 36 34 32
25 26 27 28 30 33 36 39 42 46 49 52 55 58 59 60 60 58 58 58 56 57 57 54 53 54 52 51 50 49 48 47 45 42 40 38 36 34
23 24 24 25 26 29 32 36 39 42 45 48 51 54 57 59 60 60 59 58 57 58 57 54 52 52 53 51 50 50 49 47 45 43 41 39 37 35
20 20 20 21 23 25 28 31 34 38 41 44 47 50 54 56 58 58 58 57 56 57 55 54 53 52 51 50 50 50 49 48 46 44 41 39 37 36
18 17 17 18 20 23 25 28 30 33 37 41 44 47 50 52 54 55 56 56 56 55 56 54 53 54 51 51 51 50 49 48 47 45 42 40 38 37
16 14 14 15 17 20 23 26 29 30 33 36 40 43 46 48 51 52 53 53 54 54 54 53 53 53 52 50 49 48 48 47 47 45 42 40 39 38
13 11 11 12 14 17 20 24 26 28 30 32 36 40 42 44 47 49 50 50 51 52 54 54 53 52 51 49 48 46 46 47 46 45 42 41 40 39
11 9 8 9 12 15 18 21 23 25 27 30 33 36 39 41 44 47 49 49 49 50 52 53 52 50 49 49 47 46 46 45 45 44 42 41 40 38
8 6 6 8 11 14 16 19 21 23 25 27 30 32 35 38 39 42 45 47 49 49 49 50 51 50 49 49 47 46 46 45 44 44 42 40 39 38
7 5 4 6 10 13 15 18 20 21 23 25 27 29 32 34 35 38 41 44 47 48 49 49 50 50 49 47 46 46 46 45 44 43 41 39 38 37
6 4 4 6 9 12 14 16 18 20 22 24 25 26 28 31 33 35 39 42 44 46 47 47 48 49 48 47 45 45 45 44 43 43 42 41 39 37

GEFSNE_500_meanwind_084.txt.gz
Wind_Speed
34 35 35 36 37 37 38 39 39 40 41 42 43 42 42 42 41 41 41 42 43 43 42 41 40 39 39 39 38 36 35 34 33 31 29 28 26 24
35 36 37 37 38 39 39 40 40 41 41 42 43 43 43 42 42 42 42 43 43 44 43 42 40 40 39 39 38 36 34 33 32 31 29 27 26 24
36 37 37 39 39 40 40 41 42 42 42 42 43 44 44 43 43 44 44 44 44 45 44 44 43 42 41 40 39 37 35 34 32 31 29 27 25 24
36 37 37 39 40 41 42 43 43 44 44 44 44 45 46 46 45 44 45 45 44 45 44 44 45 43 42 41 40 39 37 35 33 31 29 27 26 24
36 37 38 39 40 41 42 44 45 45 46 46 46 47 47 47 46 45 46 46 46 45 45 46 46 44 42 42 41 40 38 37 35 33 30 28 26 25
37 38 39 40 41 42 43 44 45 46 47 47 47 48 48 48 48 46 46 47 47 47 47 47 46 45 44 43 42 41 40 39 36 34 32 29 28 26
38 38 39 41 42 43 45 45 46 47 47 48 48 49 49 49 49 48 47 48 48 48 49 48 48 47 46 45 44 43 42 40 38 36 33 31 29 27
37 38 39 41 42 43 45 45 46 46 47 48 49 50 50 50 50 49 48 48 49 49 50 50 49 48 48 47 46 45 43 41 39 37 35 33 31 29
37 38 39 40 40 41 43 44 45 46 47 48 49 50 50 52 50 51 50 50 49 51 52 51 51 50 49 49 48 47 45 43 41 39 37 34 32 30
37 37 38 38 38 39 40 42 44 45 46 48 49 50 51 52 51 51 51 51 51 51 52 52 52 52 50 51 51 49 47 45 43 41 38 36 34 32
35 36 36 36 36 37 38 39 41 44 46 47 49 50 52 52 52 51 51 52 53 52 53 52 52 53 52 52 53 51 49 47 45 43 40 38 36 34
34 34 34 35 35 35 36 37 39 41 44 46 48 50 52 52 53 53 52 52 53 53 52 51 53 55 54 54 54 53 51 49 47 45 42 40 37 35
32 32 33 33 33 34 35 36 37 40 42 45 47 50 52 52 53 54 53 53 53 53 53 53 53 54 55 55 55 54 53 51 49 47 45 42 40 37
30 30 30 30 30 31 32 34 36 39 41 44 46 48 50 52 53 54 54 53 52 53 52 54 55 55 55 55 55 55 53 52 51 48 47 44 42 39
29 28 28 27 28 28 30 31 33 36 39 41 44 47 48 50 52 54 54 55 53 52 52 54 54 56 57 56 55 56 54 53 52 50 48 46 44 41
28 27 26 26 26 27 27 28 30 32 35 39 41 44 47 49 51 53 54 54 55 54 53 53 53 54 56 57 56 56 55 54 53 51 50 48 46 43
26 25 24 23 23 23 24 25 26 29 32 35 38 41 44 46 49 52 52 53 54 54 53 53 53 53 55 55 57 56 55 54 53 52 51 49 47 45
24 23 21 21 21 21 22 23 25 26 29 32 35 38 40 43 46 49 51 52 53 53 52 53 53 53 54 53 54 56 55 53 52 52 51 49 48 46
22 20 19 18 19 18 19 20 22 24 26 30 32 34 37 40 43 45 48 49 51 52 51 51 52 53 53 52 52 54 54 53 52 51 51 50 49 47
20 18 17 16 15 15 16 17 18 21 23 26 28 30 33 36 39 42 43 45 47 49 49 50 51 50 51 51 50 50 52 51 51 51 51 50 49 48
18 16 14 12 11 11 12 14 16 18 20 23 26 28 30 33 35 38 40 42 43 46 47 47 49 49 50 51 50 50 50 49 49 49 49 49 48 47
16 14 12 10 9 9 10 12 15 17 19 22 23 26 28 30 33 35 38 40 41 42 44 45 47 48 48 50 49 48 48 47 47 48 48 47 46 45
14 12 9 8 6 6 7 10 13 16 18 21 23 25 27 28 31 34 36 38 41 42 43 43 44 46 45 47 48 47 47 48 47 47 46 45 44 44

GEFSNE_500_meanwind_090.txt.gz
Wind_Speed
33 34 34 34 34 34 34 34 34 33 34 35 36 37 38 38 39 40 39 39 39 39 40 41 41 41 41 41 40 39 39 39 38 37 35 33 31 29
34 35 35 35 36 36 35 35 35 35 34 36 36 37 37 38 39 40 40 40 41 40 40 41 41 41 42 42 42 41 40 39 39 38 36 35 33 30
36 36 36 36 36 36 37 37 37 37 36 36 37 37 37 38 39 40 41 41 42 42 42 41 41 42 42 42 42 41 40 39 39 37 36 35 34 32
37 37 37 37 37 37 37 37 38 38 38 38 38 38 38 38 38 40 40 41 42 43 43 43 42 42 42 41 42 42 40 40 39 38 36 35 34 33
38 38 38 38 38 38 38 38 38 38 38 39 39 39 39 39 39 39 40 40 41 43 43 43 43 43 43 42 42 42 41 40 40 39 38 36 35 33
38 38 38 37 37 38 38 39 39 38 39 39 39 40 39 39 40 41 41 40 41 41 42 43 43 44 43 43 43 43 43 41 39 38 38 37 36 34
38 38 38 38 37 38 38 38 38 39 39 40 40 39 40 40 41 42 42 42 41 40 41 42 42 43 44 43 43 43 43 42 41 40 38 37 36 35
36 37 37 37 37 37 38 38 39 39 40 40 41 40 40 41 41 43 43 43 43 42 42 42 42 43 44 44 43 43 43 43 42 40 40 39 38 36
36 35 35 36 36 36 37 38 39 40 40 41 41 41 41 41 42 43 44 44 43 43 43 42 42 42 43 45 44 44 44 44 43 41 40 39 39 38
35 35 34 35 35 36 36 37 38 39 40 41 42 42 43 42 42 43 44 44 44 44 44 43 42 42 43 43 44 45 45 45 45 43 41 41 41 39
34 34 34 34 36 36 36 36 37 38 39 40 40 41 42 43 43 43 44 45 45 45 45 44 44 43 43 43 44 46 46 46 46 45 43 42 42 40
34 34 34 34 35 35 36 36 36 37 39 39 39 40 41 42 43 43 44 45 45 45 46 46 45 45 44 44 44 46 46 47 48 47 45 44 43 41
34 34 34 34 33 33 34 34 35 36 38 38 39 39 40 40 41 42 43 44 45 45 46 47 46 46 45 45 45 45 45 45 46 47 47 46 44 43
33 33 33 32 32 32 32 33 34 35 36 37 37 37 38 39 40 41 43 44 45 45 46 46 45 46 46 46 46 45 45 46 47 48 48 47 46 45
33 32 32 31 31 30 30 31 31 32 33 34 34 35 37 38 40 41 42 44 45 45 45 45 43 44 46 47 46 46 46 47 48 48 49 48 48 47
32 32 31 30 30 29 29 28 28 28 29 30 31 33 35 37 38 40 41 43 43 44 43 43 43 44 44 45 46 46 47 47 47 48 47 48 49 48
31 29 29 29 28 27 27 26 25 25 26 26 28 30 32 34 35 38 40 41 43 43 43 44 44 43 43 45 46 46 47 48 48 47 47 47 49 48
29 28 28 27 26 25 24 23 23 23 23 24 25 27 28 31 33 35 38 40 42 42 42 43 44 44 43 44 44 45 45 47 48 48 48 48 48 48
28 27 26 25 24 23 22 21 20 21 21 22 24 25 27 29 31 33 35 37 39 41 42 43 44 44 44 44 43 44 44 45 47 47 48 48 48 48
26 25 25 24 23 22 21 19 18 18 19 21 22 23 25 27 29 31 33 35 36 38 40 41 42 43 44 43 44 43 44 44 45 47 49 48 48 49
26 25 23 22 22 21 20 18 17 17 17 19 20 22 23 26 28 30 31 32 34 36 37 38 40 41 43 43 43 43 43 44 45 47 49 50 48 47
25 24 23 22 21 20 18 16 15 15 15 17 18 20 22 24 26 28 30 31 33 34 34 36 38 39 41 42 42 43 44 44 45 46 48 50 48 47
24 23 22 21 19 17 15 14 13 13 14 14 15 17 19 21 24 26 29 31 32 33 33 35 36 37 39 40 41 42 43 43 44 44 46 48 49 49

GEFSNE_500_meanwind_096.txt.gz
Wind_Speed
29 29 30 31 31 32 32 32 33 33 34 36 36 36 36 36 37 38 39 40 41 42 42 43 43 43 42 42 42 41 41 40 39 38 37 36 35 33
31 31 32 33 33 34 34 34 34 34 35 37 38 38 38 38 38 38 39 41 42 43 43 44 44 44 43 43 43 42 42 42 41 40 39 37 36 35
33 33 33 34 34 35 35 36 36 36 36 37 39 39 39 39 39 39 40 41 42 43 44 45 46 45 44 44 44 43 43 43 43 42 40 39 38 37
35 34 34 35 35 35 35 35 36 36 36 36 38 39 40 40 40 40 40 41 42 43 44 45 46 46 45 45 45 44 44 44 44 44 42 41 40 39
35 35 35 35 35 35 35 35 36 36 36 37 37 39 40 41 41 41 41 42 43 43 44 45 45 46 46 46 45 44 44 44 45 45 44 43 42 41
36 36 36 35 35 35 35 35 35 35 36 37 37 39 39 41 42 42 43 43 43 43 44 45 46 46 47 47 46 45 44 44 44 45 45 44 43 42
37 37 36 35 35 35 35 35 35 35 35 36 37 38 39 40 41 42 43 44 44 44 44 45 46 46 47 47 47 47 46 45 44 45 45 45 44 43
38 37 36 36 35 35 35 34 35 35 35 36 36 37 38 39 40 41 42 43 44 45 46 45 46 46 46 47 47 47 47 46 45 45 44 45 45 44
38 37 37 36 35 34 34 34 34 35 35 36 36 37 38 39 40 40 41 42 43 45 46 46 46 46 46 46 46 47 47 47 46 45 45 44 45 45
38 37 37 36 36 34 33 33 33 34 35 35 35 36 38 39 40 41 41 41 42 44 45 45 46 47 47 47 46 46 47 48 47 47 46 45 45 45
38 38 37 36 35 34 32 32 33 34 35 35 35 36 37 39 40 41 42 42 42 44 45 45 45 46 47 46 46 46 46 47 47 48 47 47 46 45
38 38 37 36 34 34 33 33 33 34 35 35 36 36 38 39 40 41 42 42 43 44 45 45 46 47 47 47 46 46 46 46 47 48 48 47 47 47
38 37 36 35 34 34 33 33 33 34 34 35 36 37 38 39 39 40 41 42 43 44 46 47 47 47 47 47 47 46 46 46 47 48 48 48 48 47
38 37 36 35 34 34 34 34 33 33 33 33 34 35 36 37 38 40 41 42 43 43 45 47 47 47 46 46 46 46 46 46 46 46 46 48 48 47
38 36 35 35 34 33 33 33 32 32 31 31 32 33 35 36 37 39 40 41 43 43 44 46 46 47 47 47 47 46 46 47 47 46 47 47 47 47
37 36 35 34 33 32 32 31 31 30 29 29 29 30 32 34 36 37 39 41 42 43 44 44 46 47 47 48 46 46 46 47 48 48 47 47 47 46
36 35 34 33 31 31 30 30 30 29 28 28 27 27 28 30 32 35 37 39 40 42 43 44 45 46 47 48 47 46 46 47 48 48 48 47 48 47
35 34 33 32 30 30 29 29 29 28 27 26 25 25 25 27 28 31 34 37 39 40 42 44 45 46 46 47 46 46 46 47 48 48 48 48 48 49
35 34 33 32 30 29 29 28 27 26 25 24 24 24 24 25 26 28 30 33 36 39 41 43 44 45 45 45 45 45 46 47 48 49 48 48 48 49
34 33 32 30 29 29 28 26 25 25 24 23 23 23 23 23 24 26 28 31 33 36 38 41 42 44 44 44 45 45 45 45 45 47 47 47 47 48
33 32 30 29 28 27 26 25 25 24 23 22 22 22 22 22 22 24 26 29 31 34 36 37 40 43 44 44 43 44 44 44 44 46 47 47 47 47
31 30 29 27 26 26 25 24 23 22 21 20 20 20 20 20 21 22 24 26 29 31 33 35 38 41 42 42 42 43 43 44 44 45 46 47 48 47
29 29 27 26 25 25 24 22 21 20 19 18 18 18 18 18 19 21 23 25 27 29 31 34 37 39 40 40 41 42 43 43 44 44 46 46 46 47

GEFSNE_500_meanwind_102.txt.gz
Wind_Speed
26 26 27 27 27 27 27 28 29 30 32 34 34 35 36 37 37 38 39 40 41 41 41 41 42 43 43 43 43 43 43 42 42 41 40 39 39 37
28 28 29 29 29 29 29 29 30 30 32 34 36 36 37 38 39 40 40 41 42 42 43 43 43 44 44 45 45 44 44 44 43 43 42 41 41 39
29 30 31 31 31 31 31 31 31 31 32 34 36 38 38 39 39 41 42 42 43 44 44 45 45 45 46 46 46 46 46 45 45 44 44 43 43 42
31 32 32 32 33 33 33 33 32 32 32 32 35 37 39 40 40 40 42 43 44 45 45 45 46 46 47 48 48 48 48 47 47 46 45 45 44 44
33 33 34 34 34 34 33 33 33 33 32 32 34 36 38 40 40 41 41 43 44 46 46 46 46 47 48 48 49 49 49 49 48 48 47 46 46 45
34 35 35 35 35 34 34 34 34 34 34 34 34 35 36 38 40 41 41 43 44 45 46 47 47 47 48 49 49 50 51 50 50 50 49 48 47 47
36 36 36 37 36 35 35 34 35 35 35 35 34 34 35 37 39 40 40 42 43 44 46 47 48 48 48 49 50 50 51 51 51 51 50 49 49 48
37 38 38 38 37 36 36 36 36 36 36 35 35 35 35 37 38 39 39 40 41 44 45 46 48 48 48 49 50 50 50 50 51 51 51 50 49 48
39 38 38 38 38 37 37 37 37 37 36 36 35 35 36 37 37 38 38 39 39 41 43 44 47 48 49 49 50 50 51 50 51 52 51 51 50 50
40 40 39 39 39 38 38 37 37 37 37 36 36 36 36 37 37 37 38 39 39 40 42 43 45 47 48 50 50 50 51 51 51 52 52 51 51 51
42 41 40 39 40 39 38 38 38 38 37 37 36 36 36 37 37 37 38 38 39 40 42 42 44 46 47 48 49 51 51 52 52 51 52 52 52 51
43 43 42 41 41 40 40 39 38 38 38 37 36 36 37 37 37 37 38 38 39 39 41 42 43 45 45 46 48 50 51 52 52 51 51 51 51 51
44 44 44 43 42 41 40 40 39 38 38 37 37 36 36 37 37 37 38 38 38 39 41 43 43 44 45 46 47 48 49 51 51 51 51 51 51 51
46 46 45 44 43 42 42 41 40 39 38 37 37 36 36 36 37 37 37 37 37 38 40 42 43 44 45 45 46 48 48 49 50 51 52 51 51 51
48 47 46 45 44 44 43 42 40 39 38 37 36 35 36 36 36 36 36 36 36 36 38 39 41 43 44 44 44 46 48 48 48 49 50 51 51 51
50 49 48 46 45 44 43 41 40 39 38 36 35 34 35 35 35 35 34 34 34 34 36 38 39 40 42 43 43 44 46 47 48 49 49 49 50 50
51 50 48 47 46 44 42 40 39 38 36 35 35 34 34 34 33 33 33 33 33 34 36 38 39 39 40 41 42 42 44 46 47 48 48 48 48 49
52 50 48 47 45 43 41 39 38 38 37 36 34 34 34 33 33 33 32 32 32 33 35 36 38 39 39 40 41 42 43 44 45 47 47 48 48 48
52 50 48 46 44 41 39 38 38 37 37 35 34 33 33 32 32 31 31 31 31 31 32 34 36 37 38 39 40 42 42 44 44 46 47 47 47 48
52 50 47 44 42 40 39 37 36 36 35 33 32 32 31 31 30 30 30 29 29 30 30 31 33 35 36 38 39 41 42 42 43 44 45 46 46 47
49 47 44 42 40 39 37 36 35 34 33 32 31 30 30 29 28 28 28 28 28 28 29 29 30 32 34 35 37 38 40 41 42 42 43 44 45 45
46 44 41 39 37 36 35 35 34 33 32 30 29 29 28 27 27 27 27 27 26 26 27 28 29 30 32 33 34 36 38 39 39 40 41 42 42 44
43 40 38 35 34 34 33 32 31 30 29 28 27 26 26 26 25 25 25 25 25 24 25 26 27 28 29 31 33 34 36 37 38 39 40 41 41 41

GEFSNE_500_meanwind_108.txt.gz
Wind_Speed
18 19 19 20 21 21 22 23 24 25 26 26 26 26 26 28 31 33 35 36 37 38 38 39 40 40 40 41 41 41 41 40 42 43 43 42 42 42
20 21 22 22 22 23 24 25 25 26 27 28 28 27 27 28 29 31 33 36 38 39 40 41 42 42 42 42 43 43 43 43 43 43 44 45 44 43
22 23 23 24 24 25 26 26 26 26 27 28 29 29 29 29 29 30 32 34 36 39 41 42 43 44 44 44 44 45 45 45 45 44 45 45 46 46
24 25 25 25 26 27 27 28 28 28 28 28 30 30 31 31 31 31 32 33 35 37 39 42 43 45 46 46 46 47 47 47 46 46 46 46 46 46
26 27 27 27 28 28 29 29 29 29 29 30 30 31 32 32 32 32 33 33 35 36 38 40 42 44 46 47 48 48 48 48 48 48 48 48 48 47
28 29 29 29 30 30 31 31 31 31 31 31 31 32 33 33 33 33 33 34 34 36 37 38 40 43 45 47 48 49 49 50 50 50 50 50 50 49
30 31 31 31 32 32 33 33 33 33 33 33 33 33 34 34 34 34 34 35 35 36 37 37 39 41 44 46 48 49 50 50 50 51 51 52 52 51
32 32 33 33 33 34 34 35 35 35 35 35 34 35 34 35 35 35 35 35 36 37 37 38 39 40 41 44 46 48 50 50 51 51 51 52 52 53
34 35 35 36 36 36 36 37 38 38 37 37 36 36 36 36 36 36 36 36 37 38 38 38 39 40 41 42 44 46 49 51 51 51 52 52 52 53
36 36 37 38 39 39 39 39 39 40 39 39 38 38 38 38 38 38 38 38 38 38 39 39 39 39 40 42 42 43 46 48 50 50 51 52 52 53
38 38 39 40 40 41 41 41 41 41 41 40 40 40 40 40 40 39 39 39 38 38 39 39 39 40 40 41 41 42 43 45 48 49 50 51 52 53
41 41 42 42 43 44 44 43 43 43 43 42 42 42 42 41 41 40 40 39 39 39 39 39 39 40 40 41 41 42 43 44 46 48 49 50 51 52
43 44 45 45 46 46 46 46 46 45 45 44 44 43 43 43 42 41 40 40 39 39 39 40 39 40 40 40 41 42 42 43 44 46 48 49 51 52
46 47 47 48 48 49 49 48 48 48 47 46 45 45 45 44 43 42 41 40 40 39 39 39 39 39 39 39 40 41 41 42 43 45 46 48 50 51
49 49 50 51 51 50 50 50 50 49 49 48 46 45 45 45 44 43 42 41 40 39 39 39 39 38 39 39 39 40 40 40 42 43 45 46 48 50
53 53 53 53 53 52 52 52 52 51 50 48 47 46 45 45 44 43 42 41 40 39 39 38 38 38 38 38 38 39 39 40 41 42 43 45 46 48
55 55 55 55 54 54 54 53 52 51 50 48 46 45 45 44 43 42 41 40 40 39 37 37 37 37 37 37 38 38 39 40 40 41 42 43 45 46
57 57 57 57 56 55 54 53 52 51 49 47 46 45 43 42 41 41 40 39 38 37 37 36 36 36 36 36 36 37 38 39 40 41 41 42 42 44
60 59 59 58 57 56 54 53 51 50 48 46 45 44 43 42 40 39 39 38 37 36 35 34 34 35 35 34 34 36 36 37 39 40 40 41 41 42
61 60 59 57 55 53 51 50 49 47 46 45 44 42 41 40 39 38 37 36 35 34 34 34 34 34 34 33 33 34 35 35 37 38 39 40 40 41
59 58 56 54 52 50 48 47 46 45 44 43 41 40 39 38 36 35 35 34 33 33 32 32 32 32 32 32 32 32 34 35 35 36 38 39 38 40
55 53 52 50 48 46 45 44 43 41 40 39 38 37 36 35 33 33 33 32 31 31 30 30 30 31 31 31 30 30 32 33 34 34 36 37 37 38
50 48 47 45 43 41 40 39 37 36 36 35 34 33 32 31 31 30 30 29 29 29 28 29 29 29 29 29 29 29 29 31 32 33 34 35 36 37

GEFSNE_500_meanwind_114.txt.gz
Wind_Speed
17 18 19 19 20 20 21 21 21 22 23 23 23 23 23 23 24 24 25 25 26 26 27 27 29 31 32 33 34 35 35 36 36 36 36 38 38 37
20 21 21 22 22 23 23 23 23 24 25 25 25 24 25 25 25 25 26 26 27 28 28 28 29 30 32 34 35 36 37 38 38 38 38 39 39 39
23 23 24 24 25 25 25 25 26 26 26 27 27 26 26 27 27 27 27 27 28 28 29 30 30 30 31 33 35 36 37 39 40 40 40 40 41 41
25 26 26 27 27 28 27 27 27 28 28 28 29 29 28 28 29 29 29 28 28 29 29 30 31 31 32 33 34 36 37 39 40 41 42 42 42 42
28 28 28 29 30 30 29 29 30 30 30 30 30 30 30 30 30 31 30 30 30 30 30 30 31 32 33 33 34 35 37 39 40 42 43 43 43 44
31 31 31 31 32 32 32 32 32 32 32 32 32 32 32 32 32 32 32 32 31 31 32 31 32 33 33 34 35 35 36 38 39 41 43 44 44 45
33 33 34 33 33 34 34 34 34 34 34 34 34 33 34 34 34 34 34 33 33 33 33 33 33 34 34 35 36 36 37 38 39 40 42 44 45 46
34 35 36 36 36 36 36 37 37 36 36 36 36 36 36 36 36 36 36 35 35 36 35 35 35 35 35 36 36 36 37 38 39 40 41 43 45 46
37 37 37 37 37 37 37 37 38 38 38 38 38 38 38 38 39 38 38 38 38 38 38 37 37 37 36 36 37 37 37 38 39 40 42 43 44 45
38 38 38 38 38 39 39 39 39 39 40 40 40 40 41 41 41 41 41 40 40 40 41 39 38 38 38 38 38 38 38 39 39 40 40 42 43 45
41 40 40 40 41 41 41 41 41 42 42 43 43 43 43 43 43 43 43 43 41 41 42 41 40 40 39 39 39 39 39 39 39 39 40 41 42 43
43 43 43 43 43 44 44 44 44 44 45 45 45 45 45 44 45 45 45 44 43 42 42 43 42 41 40 39 39 39 39 39 39 39 40 41 41 42
45 45 45 45 45 46 46 47 47 47 47 47 47 47 48 47 47 47 47 46 45 44 44 44 43 42 42 41 40 40 39 39 39 38 39 40 41 42
47 47 47 48 48 48 48 49 49 50 49 49 50 50 50 49 49 48 48 47 46 45 45 45 44 43 42 41 40 40 40 39 39 39 39 39 40 41
48 49 49 50 51 51 51 51 52 52 52 52 52 52 51 51 50 49 49 48 47 46 45 44 44 43 43 42 41 40 39 39 39 39 39 39 40 40
50 51 51 52 53 53 53 54 54 54 55 55 54 53 52 52 51 51 50 48 47 46 45 44 44 44 43 42 41 39 39 38 38 38 38 38 39 40
53 53 53 55 55 56 55 55 55 56 55 54 53 52 52 51 50 50 50 49 47 46 45 44 44 43 42 41 40 39 39 38 38 38 38 38 37 38
53 54 55 56 57 57 56 56 55 55 54 53 52 51 51 51 50 49 48 46 45 44 43 42 42 42 41 39 38 38 38 37 37 37 37 37 36 37
55 56 55 56 56 56 56 55 55 54 53 52 51 50 50 49 47 47 46 44 43 41 41 40 39 39 39 37 37 38 37 36 36 36 36 36 36 36
55 55 55 55 55 55 54 53 53 52 50 50 49 48 46 45 43 42 41 41 40 39 38 37 37 37 37 37 36 35 36 35 34 34 34 35 35 35
55 54 54 54 53 53 52 51 50 49 47 46 45 44 43 42 42 41 40 39 38 37 36 36 36 36 36 35 34 33 34 34 34 33 33 34 34 34
53 53 52 51 51 50 49 48 47 45 44 43 41 40 39 38 38 37 36 36 36 35 34 34 34 34 34 33 32 31 32 32 32 32 32 32 33 33
50 49 48 47 47 46 45 44 42 40 38 37 36 36 35 35 34 33 32 32 32 31 31 31 32 31 31 30 30 30 30 30 30 30 30 30 31 31

GEFSNE_500_meanwind_120.txt.gz
Wind_Speed
11 11 11 11 12 12 13 13 14 14 14 15 15 16 16 17 17 18 18 19 19 19 19 20 20 21 22 23 25 26 28 29 30 31 32 33 33 34
13 14 14 14 15 15 15 16 16 17 17 17 17 18 19 19 19 20 20 20 21 21 21 21 22 22 23 24 25 26 28 29 31 32 33 34 35 35
16 16 17 17 18 18 18 19 19 19 19 20 20 20 21 22 22 22 22 23 23 23 23 24 24 24 25 25 26 27 28 29 30 32 34 35 35 36
20 20 20 21 21 21 21 22 22 22 22 23 23 23 23 24 24 25 25 25 25 26 26 26 26 26 26 27 27 28 28 30 31 32 33 35 36 37
23 23 23 24 24 24 24 24 25 25 25 26 26 26 27 27 27 27 27 28 28 28 28 28 28 28 29 29 29 29 30 31 32 33 34 35 36 37
26 26 26 27 27 27 28 28 28 28 28 29 29 29 29 30 30 30 30 30 30 30 31 31 31 31 31 32 32 32 32 33 33 34 35 36 37 38
28 29 29 30 30 30 31 31 31 32 32 32 32 32 32 32 33 33 32 32 33 33 33 33 33 33 34 34 34 35 35 35 35 36 36 37 38 39
30 30 31 32 33 33 34 34 34 35 35 35 35 35 35 35 35 36 36 35 35 36 36 36 36 36 36 36 36 36 37 37 37 38 38 38 39 39
33 34 34 34 35 35 36 35 35 36 37 38 38 38 38 38 38 38 39 39 38 39 39 38 39 39 39 39 39 39 39 39 39 39 39 39 40 40
36 36 36 37 38 39 39 38 39 40 41 41 41 41 41 41 42 42 42 42 42 42 43 42 41 42 42 41 41 41 41 41 40 40 40 40 40 41
39 39 39 39 40 41 41 41 41 42 43 43 43 44 44 44 45 46 45 46 45 45 46 46 45 45 44 44 44 44 43 43 43 42 42 42 42 42
39 40 40 41 42 43 43 44 44 45 45 45 46 46 47 47 48 49 49 49 49 48 48 49 48 48 46 46 46 46 46 45 45 45 44 44 44 44
41 41 42 43 44 45 46 46 46 46 47 47 47 48 49 50 51 52 52 53 52 51 50 52 51 51 51 48 48 48 48 48 47 47 46 45 45 45
42 43 43 44 45 46 46 47 47 47 48 48 49 49 50 52 53 54 54 54 55 54 53 53 53 53 53 52 50 49 49 49 48 47 47 47 46 46
42 42 43 45 46 46 47 47 49 50 50 50 50 51 52 53 53 54 55 55 55 55 55 55 55 54 54 53 51 50 50 49 49 48 48 47 47 46
43 44 46 47 47 47 48 49 50 51 52 52 53 54 54 55 55 55 55 56 55 54 55 55 55 55 54 53 51 49 49 49 49 49 48 47 46 46
45 46 47 49 50 50 51 52 53 54 54 55 56 56 56 56 56 57 57 57 56 54 54 54 53 52 52 51 50 50 49 49 49 49 48 46 45 45
47 49 50 50 51 52 53 54 55 55 56 57 57 57 57 57 56 57 56 56 55 55 54 53 53 52 51 49 49 48 47 46 46 46 46 45 43 44
50 51 52 53 54 55 55 56 56 56 57 57 57 57 56 56 55 55 54 54 54 53 52 51 51 50 49 47 45 46 45 43 43 42 42 42 41 42
51 52 53 53 54 54 55 55 55 55 56 55 55 54 54 54 53 53 52 51 50 49 48 48 47 47 45 44 41 41 42 42 41 40 40 40 39 39
53 53 53 54 53 52 53 53 52 52 52 52 52 52 51 51 50 50 49 48 47 46 44 43 43 42 41 40 38 37 38 39 38 37 37 37 37 36
53 53 53 52 51 51 50 49 49 48 48 48 48 47 46 46 46 46 45 44 42 41 39 38 37 36 35 34 33 33 33 34 36 36 35 35 34 34
51 50 49 48 48 48 47 46 45 45 44 44 43 43 42 42 41 41 39 38 36 35 34 34 33 33 33 32 31 31 31 32 32 32 32 33 33 32